www.pogodaiklimat.ru

Погода и климат >> Архив погоды >> Венгрия >> Шопрон


ПОГОДА в Шопроне

  • Прогноз погоды в Шопроне
  • Монитор погоды в Шопроне

АРХИВ ПОГОДЫ в Шопроне

Время (UTC), дата Ветер
(напр.,м/с)
 
Видим.   Явления Облачность Т
(С)
Тd
(С)
f
(%)
Тe
(С)
Тes
(С)
Комфортность P
(гПа)
Po
(гПа)
Тmin
(С)
Tmax
(С)
R
(мм)
R24
(мм)
S
(см)
16 18.06 В 3
{7}
н/о н/о +27.2 +16.8 53 +31 +31 душно 1013.9 1000.3
17 18.06 В 3 н/о н/о +27.2 +16.8 53 +31 +31 душно 1013.9 1000.3
18 18.06 ЮВ 3 н/о н/о +25.5 +16.9 59 +29 +29 душно 1014.3 1000.6 +28.2
19 18.06 Ю 2 н/о н/о +22.9 +17.1 70 +28 +28 душно 1014.5 1000.7
20 18.06 Ю 2 н/о н/о +20.3 +17.1 82 +24 +24 комфорт 1015.0 1001.1
21 18.06 ЮВ 1 н/о н/о +18.9 +16.7 87 +21 +21 комфорт 1014.9 1000.9
22 18.06 Ю 1 н/о н/о +17.8 +16.5 92 +19 +19 1014.6 1000.6
23 18.06 штиль 0 н/о н/о +17.3 +16.2 93 +17 +17 1014.6 1000.5
00 19.06 штиль 0 н/о н/о +17.4 +16.1 92 +17 +17 1014.4 1000.3
01 19.06 СЗ 1 н/о н/о +16.9 +15.6 92 +18 +18 1014.3 1000.2
02 19.06 З 1 н/о н/о +16.5 +15.5 94 +17 +17 1013.7 999.6
03 19.06 З 1 н/о н/о +16.0 +15.2 95 +17 +17 1013.6 999.5
04 19.06 штиль 0 н/о н/о +16.4 +15.8 96 +16 +16 1013.8 999.7
05 19.06 ЮВ 1 н/о н/о +17.9 +17.1 95 +19 +19 1013.6 999.6
06 19.06 С 1 н/о н/о +20.7 +18.8 89 +26 +26 душно 1013.8 999.9 +15.5
07 19.06 ЮВ 1 н/о н/о +23.0 +18.3 75 +29 +29 очень
душно
1013.5 999.7
08 19.06 В 3 н/о н/о +25.5 +20.3 73 +31 +31 очень
душно
1013.2 999.5
09 19.06 ЮВ 4 н/о н/о +26.6 +18.5 61 +31 +31 душно 1012.8 999.2
10 19.06 ЮВ 3
{7}
н/о н/о +27.2 +19.5 63 +33 +33 очень
душно
1012.4 998.8
11 19.06 Ю 4
{9}
н/о н/о +28.3 +16.9 50 +32 +32 душно 1011.5 998.0
12 19.06 В 4
{8}
н/о н/о +29.1 +18.5 53 +34 +34 очень
душно
1011.4 997.9
13 19.06 В 6
{10}
н/о н/о +27.9 +19.9 62 +34 +34 очень
душно
1010.9 997.4
14 19.06 ЮВ 6
{12}
н/о н/о +27.2 +20.1 65 +33 +33 очень
душно
1010.7 997.1
15 19.06 Ю 6
{11}
н/о н/о +25.6 +17.5 61 +30 +30 душно 1010.2 996.6
16 19.06 Ю 1
{7}
н/о н/о +25.5 +20.1 72 +31 +31 очень
душно
1009.9 996.3
17 19.06 В 5
{7}
н/о н/о +24.4 +20.3 78 +30 +30 очень
душно
1010.7 997.0
18 19.06 ЮВ 2
{7}
н/о н/о +22.9 +19.7 82 +29 +29 очень
душно
1010.4 996.7 +29.6
19 19.06 ЮВ 2 н/о н/о +21.7 +19.3 86 +27 +27 душно 1010.7 996.9
20 19.06 ЮВ 2 н/о н/о +21.6 +19.2 86 +27 +27 душно 1011.5 997.7
21 19.06 СВ 2 н/о н/о +20.1 +19.1 94 +24 +24 комфорт 1011.6 997.7
22 19.06 штиль 0 н/о н/о +19.3 +18.5 95 +21 +21 комфорт 1011.7 997.8
23 19.06 Ю 1 н/о н/о +18.9 +18.2 96 +22 +22 комфорт 1011.5 997.6
00 20.06 СЗ 1 н/о н/о +18.5 +17.9 96 +20 +20 1011.8 997.8
01 20.06 СЗ 1 н/о н/о +17.8 +17.3 97 +19 +19 1011.5 997.5
02 20.06 СЗ 1 н/о н/о +17.2 +16.7 97 +18 +18 1011.3 997.3
03 20.06 СЗ 1 н/о н/о +16.7 +16.1 96 +18 +18 1011.1 997.1
04 20.06 СЗ 1 н/о н/о +17.9 +16.9 94 +19 +19 1011.6 997.6
05 20.06 СВ 2 н/о н/о +19.1 +18.4 96 +21 +21 комфорт 1012.0 998.1
06 20.06 СВ 1 н/о н/о +19.8 +18.6 93 +24 +24 комфорт 1012.6 998.7 +16.6
07 20.06 СЗ 2 н/о н/о +21.3 +18.9 86 +26 +26 душно 1012.8 999.0
08 20.06 С 2 н/о н/о +23.3 +19.5 79 +30 +30 очень
душно
1012.9 999.1
09 20.06 СВ 2 н/о н/о +24.4 +19.5 74 +30 +30 очень
душно
1012.7 999.0
10 20.06 СВ 3 н/о н/о +25.7 +19.1 67 +31 +31 очень
душно
1012.8 999.2
11 20.06 С 3
{7}
н/о н/о +26.3 +19.2 65 +32 +32 очень
душно
1012.5 998.9
12 20.06 СВ 2 н/о н/о +27.9 +18.9 58 +33 +33 очень
душно
1011.7 998.2
13 20.06 ЮВ 1 н/о н/о +27.7 +18.4 57 +33 +33 очень
душно
1011.0 997.5
14 20.06 штиль 0 н/о н/о +27.0 +18.0 58 +32 +32 очень
душно
1010.9 997.3
15 20.06 З 1 н/о н/о +27.1 +18.7 60 +32 +32 очень
душно
1010.7 997.1
16 20.06 Ю 1 н/о н/о +27.8 +17.9 55 +32 +32 душно 1010.3 996.8
17 20.06 З 1 н/о н/о +25.6 +19.0 67 +31 +31 очень
душно
1011.4 997.8
18 20.06 З 1 н/о н/о +23.1 +19.5 80 +30 +30 очень
душно
1011.6 997.9 +28.3 0.2
19 20.06 СЗ 1 н/о н/о +22.0 +19.6 86 +28 +28 душно 1012.1 998.3
20 20.06 З 1 н/о н/о +20.5 +18.3 87 +25 +25 комфорт 1013.1 999.2
21 20.06 СЗ 4
{11}
н/о н/о +21.9 +16.0 69 +26 +26 душно 1014.0 1000.2
22 20.06 З 4
{10}
н/о н/о +20.1 +15.9 77 +23 +23 комфорт 1014.3 1000.4
23 20.06 З 3
{8}
н/о н/о +19.6 +16.1 80 +22 +22 комфорт 1014.1 1000.2
00 21.06 З 4
{8}
н/о н/о +18.0 +15.6 86 +18 +18 1014.6 1000.6 0.9
01 21.06 З 2
{10}
н/о н/о +17.5 +16.4 93 +18 +18 1015.3 1001.2
02 21.06 СЗ 1 н/о н/о +16.7 +16.1 96 +18 +18 1015.3 1001.2
03 21.06 С 2 н/о н/о +16.4 +15.6 95 +16 +16 1015.9 1001.8
04 21.06 штиль 0 н/о н/о +16.5 +15.7 95 +16 +16 1016.3 1002.2
05 21.06 штиль 0 н/о н/о +18.8 +16.4 86 +20 +20 1016.3 1002.3
06 21.06 З 2 н/о н/о +20.8 +17.2 80 +25 +25 комфорт 1016.4 1002.5 +16.4 8
07 21.06 СЗ 1 н/о н/о +21.7 +16.9 74 +26 +26 душно 1016.8 1002.9
08 21.06 С 3 н/о н/о +22.8 +17.0 70 +28 +28 душно 1016.9 1003.1
09 21.06 С 4
{7}
н/о н/о +25.1 +17.1 61 +29 +29 душно 1016.8 1003.1
10 21.06 СЗ 3
{7}
н/о н/о +26.4 +16.3 54 +30 +30 душно 1016.6 1002.9
11 21.06 СЗ 3
{8}
н/о н/о +27.4 +14.4 45 +30 +30 жарко 1016.1 1002.5
12 21.06 С 3
{7}
н/о н/о +28.1 +13.6 41 +30 +30 жарко 1015.5 1001.9
13 21.06 СЗ 3 н/о н/о +28.7 +14.9 43 +31 +31 жарко 1015.2 1001.7
14 21.06 н/о н/о +29.3 +14.3 40 1014.6 1001.1
15 21.06 СЗ 2 н/о н/о +29.4 +13.6 38 +31 +31 жарко 1014.3 1000.8
16 21.06 СЗ 2 н/о н/о +26.9 +15.0 48 +30 +30 душно 1014.8 1001.2
17 21.06 СВ 1 н/о н/о +27.5 +16.8 52 +31 +31 душно 1014.8 1001.2
18 21.06 штиль 0 н/о н/о +26.2 +17.6 59 +30 +30 душно 1015.2 1001.5 +29.5
19 21.06 З 1 н/о н/о +23.7 +18.1 71 +28 +28 душно 1016.0 1002.2
20 21.06 З 1 н/о н/о +22.3 +17.7 75 +27 +27 душно 1016.5 1002.6
21 21.06 СЗ 1 н/о н/о +22.6 +16.9 70 +27 +27 душно 1016.8 1003.0
22 21.06 З 1 н/о н/о +21.8 +17.0 74 +26 +26 душно 1016.8 1002.9
23 21.06 З 2 н/о н/о +21.1 +17.1 78 +25 +25 комфорт 1016.9 1003.0
00 22.06 СЗ 1 н/о н/о +20.8 +16.4 76 +25 +25 комфорт 1017.2 1003.3
01 22.06 З 2 н/о н/о +20.3 +16.9 81 +24 +24 комфорт 1017.5 1003.5
02 22.06 З 1 н/о н/о +20.1 +16.5 80 +24 +24 комфорт 1017.3 1003.3
03 22.06 З 2 н/о н/о +20.0 +16.2 79 +23 +23 комфорт 1017.5 1003.5
04 22.06 СЗ 2 н/о н/о +20.1 +16.3 79 +23 +23 комфорт 1017.8 1003.8
05 22.06 СЗ 1 н/о н/о +20.4 +17.2 82 +25 +25 комфорт 1018.3 1004.3
06 22.06 СЗ 1 н/о н/о +21.3 +17.5 79 +25 +25 комфорт 1018.4 1004.5 +19.9
07 22.06 СЗ 1 н/о н/о +22.5 +18.5 78 +28 +28 душно 1018.7 1004.8
08 22.06 СЗ 2 н/о н/о +21.8 +18.4 81 +27 +27 душно 1018.6 1004.7
09 22.06 СЗ 2
{7}
н/о н/о +22.1 +18.5 80 +27 +27 душно 1019.0 1005.1
10 22.06 З 1 н/о н/о +23.0 +18.8 77 +29 +29 очень
душно
1018.9 1005.0
11 22.06 С 2 н/о н/о +24.5 +18.9 71 +29 +29 душно 1017.6 1003.8
12 22.06 В 2 н/о н/о +25.4 +19.3 69 +31 +31 очень
душно
1017.3 1003.6 0.1
13 22.06 С 2 н/о н/о +25.6 +18.5 65 +30 +30 душно 1016.5 1002.8
14 22.06 штиль 0 н/о н/о +25.5 +17.7 62 +30 +30 душно 1015.8 1002.1
15 22.06 штиль 0 н/о н/о +25.7 +17.1 59 +30 +30 душно 1015.3 1001.6
16 22.06 штиль 0 н/о н/о +24.2 +19.1 73 +29 +29 душно 1014.9 1001.2
17 22.06 СВ 4
{9}
н/о н/о +22.1 +17.9 77 +27 +27 душно 1014.8 1001.0
18 22.06 ЮВ 4
{7}
н/о н/о +19.8 +18.6 93 +23 +23 комфорт 1015.5 1001.5 +26.2 2
19 22.06 штиль 0 н/о н/о +18.9 +18.2 96 +20 +20 1015.2 1001.2
20 22.06 Ю 3 н/о н/о +17.4 +16.9 97 +17 +17 1015.7 1001.6
21 22.06 З 1 н/о н/о +16.8 +16.5 98 +18 +18 1015.8 1001.7
22 22.06 СЗ 2 н/о н/о +15.7 +15.4 98 +16 +16 1016.0 1001.8
23 22.06 З 1 н/о н/о +16.1 +15.8 98 +17 +17 1015.4 1001.3
00 23.06 З 1 н/о н/о +16.7 +16.4 98 +18 +18 1015.8 1001.7 0.8
01 23.06 З 1 н/о н/о +17.1 +16.8 98 +18 +18 1015.6 1001.5
02 23.06 штиль 0 н/о н/о +17.0 +16.7 98 +17 +17 1015.5 1001.4
03 23.06 штиль 0 н/о н/о +17.2 +16.9 98 +17 +17 1015.5 1001.4
04 23.06 З 1 н/о н/о +17.7 +17.4 98 +19 +19 1015.4 1001.3
05 23.06 СЗ 2 н/о н/о +18.7 +18.2 97 +20 +20 1015.5 1001.5
06 23.06 СЗ 2 н/о н/о +19.6 +18.6 94 +23 +23 комфорт 1015.8 1001.8 +15.7 0.8
07 23.06 С 3 н/о н/о +19.5 +18.3 93 +22 +22 комфорт 1015.9 1001.9
08 23.06 С 4
{7}
н/о н/о +20.6 +18.9 90 +25 +25 комфорт 1016.1 1002.2
09 23.06 С 3 н/о н/о +21.5 +18.5 83 +26 +26 душно 1016.2 1002.3
10 23.06 С 4 н/о н/о +21.4 +18.8 85 +26 +26 душно 1016.6 1002.7
11 23.06 С 2 н/о н/о +22.0 +19.6 86 +28 +28 душно 1016.5 1002.6
12 23.06 С 2
{10}
н/о н/о +21.3 +18.7 85 +30 +30 очень
душно
1016.5 1002.6 0.2
13 23.06 СЗ 3
{9}
н/о н/о +20.2 +19.7 97 +24 +24 комфорт 1016.9 1002.9
14 23.06 СЗ 2 н/о н/о +21.2 +20.0 93 +26 +26 душно 1016.5 1002.6
15 23.06 СЗ 2 н/о н/о +23.2 +20.9 87 +31 +31 очень
душно
1015.9 1002.1
16 23.06 СВ 4
{9}
н/о н/о +20.1 +17.7 86 +23 +23 комфорт 1017.1 1003.1
17 23.06 С 2 н/о н/о +21.1 +18.7 86 +25 +25 комфорт 1016.7 1002.8
18 23.06 СЗ 1 н/о н/о +20.5 +18.6 89 +25 +25 комфорт 1016.7 1002.8 +24.1 3
19 23.06 СВ 3
{7}
н/о н/о +19.9 +18.7 93 +23 +23 комфорт 1017.2 1003.2
20 23.06 СЗ 1 н/о н/о +19.5 +19.0 97 +23 +23 комфорт 1018.1 1004.1
21 23.06 СЗ 3 н/о н/о +19.3 +19.0 98 +22 +22 комфорт 1018.4 1004.4
22 23.06 З 2 н/о н/о +19.1 +18.8 98 +22 +22 комфорт 1018.6 1004.6
23 23.06 З 1 н/о н/о +18.8 +18.3 97 +21 +21 комфорт 1018.8 1004.8
00 24.06 З 1 н/о н/о +18.5 +18.0 97 +20 +20 1019.2 1005.1 15
01 24.06 СЗ 1 н/о н/о +18.2 +17.6 96 +20 +20 1019.4 1005.3
02 24.06 З 1 н/о н/о +17.6 +16.8 95 +19 +19 1019.4 1005.3
03 24.06 З 1 н/о н/о +17.0 +16.2 95 +18 +18 1019.6 1005.5
04 24.06 З 2 н/о н/о +17.7 +16.2 91 +18 +18 1019.8 1005.7
05 24.06 З 2
{7}
н/о н/о +19.6 +16.6 83 +22 +22 комфорт 1020.0 1006.0
06 24.06 СЗ 2 н/о н/о +21.2 +16.8 76 +25 +25 комфорт 1020.3 1006.3 +16.9 15
07 24.06 СЗ 3
{7}
н/о н/о +22.4 +16.4 69 +27 +27 душно 1020.5 1006.6
08 24.06 СЗ 4
{7}
н/о н/о +23.4 +15.5 61 +28 +28 душно 1020.7 1006.8
09 24.06 СЗ 4
{8}
н/о н/о +24.8 +16.8 61 +28 +28 жарко 1020.4 1006.6
10 24.06 СЗ 5
{9}
н/о н/о +25.7 +16.8 58 +29 +29 душно 1020.6 1006.8
11 24.06 С 4
{8}
н/о н/о +26.5 +16.4 54 +30 +30 душно 1020.5 1006.8
12 24.06 С 5
{9}
н/о н/о +27.3 +15.7 49 +30 +30 душно 1020.4 1006.7
13 24.06 СЗ 3
{8}
н/о н/о +27.8 +17.3 53 +32 +32 душно 1020.5 1006.8
14 24.06 СЗ 3 н/о н/о +28.3 +18.7 56 +33 +33 очень
душно
1020.1 1006.5
15 24.06 С 3
{7}
н/о н/о +28.5 +17.1 50 +32 +32 душно 1020.0 1006.4
16 24.06 СЗ 2 н/о н/о +28.7 +17.3 50 +33 +33 очень
душно
1019.9 1006.3
17 24.06 СЗ 3 н/о н/о +28.1 +17.3 52 +32 +32 душно 1020.0 1006.4
18 24.06 СЗ 2 н/о н/о +26.2 +18.3 62 +31 +31 очень
душно
1020.6 1006.9 +28.9
19 24.06 СЗ 2 н/о н/о +23.7 +18.6 73 +28 +28 душно 1021.0 1007.2
20 24.06 З 1 н/о н/о +22.4 +18.4 78 +28 +28 душно 1021.6 1007.7
21 24.06 З 1 н/о н/о +21.2 +17.8 81 +25 +25 комфорт 1022.0 1008.0
22 24.06 З 1 н/о н/о +21.2 +17.6 80 +25 +25 комфорт 1022.1 1008.1
23 24.06 СЗ 1 н/о н/о +20.1 +17.3 84 +24 +24 комфорт 1022.4 1008.4
00 25.06 СЗ 1 н/о н/о +19.5 +17.1 86 +23 +23 комфорт 1022.4 1008.3
01 25.06 СЗ 1 н/о н/о +19.0 +17.0 88 +22 +22 комфорт 1022.4 1008.3
02 25.06 СЗ 1 н/о н/о +19.1 +16.7 86 +22 +22 комфорт 1022.3 1008.2
03 25.06 З 1 н/о н/о +18.6 +16.6 88 +21 +21 комфорт 1022.4 1008.3
04 25.06 З 1 н/о н/о +19.0 +17.1 89 +22 +22 комфорт 1022.6 1008.5
05 25.06 СЗ 1 н/о н/о +21.7 +18.9 84 +27 +27 душно 1022.9 1008.9
06 25.06 штиль 0 н/о н/о +23.4 +19.8 80 +30 +30 очень
душно
1023.1 1009.2 +18.5
07 25.06 В 1 н/о н/о +25.6 +20.4 73 +32 +32 очень
душно
1023.2 1009.4
08 25.06 В 2 н/о н/о +26.8 +21.6 73 +34 +34 очень
душно
1023.3 1009.6
09 25.06 В 4 н/о н/о +27.8 +20.6 65 +35 +35 очень
душно
1023.3 1009.6
10 25.06 В 3 н/о н/о +28.9 +20.9 62 +36 +36 очень
душно
1023.3 1009.7
11 25.06 В 3 н/о н/о +29.2 +20.1 58 +36 +36 очень
душно
1023.2 1009.6
12 25.06 В 4
{7}
н/о н/о +28.8 +20.8 62 +36 +36 очень
душно
1023.2 1009.6
13 25.06 В 3 н/о н/о +29.5 +22.0 64 +38 +38 очень
душно
1023.0 1009.4
14 25.06 В 4
{7}
н/о н/о +29.6 +20.5 58 +36 +36 очень
душно
1022.7 1009.1
15 25.06 В 4 н/о н/о +30.2 +20.2 55 +37 +37 очень
душно
1022.5 1008.9

 

Местоположение метеостанции Шопрон (Венгрия): широта 47.68 долгота 16.60 высота над уровнем моря 239 м.

В архиве по умолчанию представлена погода в Шопроне за последнюю неделю. Архивные данные за месяц целиком и за предыдущие месяцы, начиная с января 2011 года, Вы можете получить, выбрав интересующий диапазон дат из раскрывающегося списка и нажав кнопку "Ввод!".


*Определитесь, кто Вы:
робот инопланетянин человек

Внимание! Время в таблицах - всемирное. Для получения местного времени необходимо прибавить поправку, которая равна 1 ч.

Смотрите также архив погоды в соседних городах и на ближайших метеорологических станциях:

Погода в Айзенштадте (Австрия) (20 км)
Погода в Луцмансбурге (Австрия) (24 км)
Погода в Винер-Нойштадт (Австрия) (33 км)
Погода в Андау (Австрия) (34 км)
Погода в Зайберсдорфе (Австрия) (34 км)
Погода в Нойзидль-ам-Зе (Австрия) (35 км)
Погода в Крумбахе (Австрия) (35 км)
Погода в Нойзидль-ам-Зе (Австрия) (35 км)
Погода в Хоэ-Ванде (Австрия) (45 км)
Погода в Сомбатхее (Венгрия) (46 км)

Пояснения к столбцам:

Ветер - указаны скорость ветра в м/с - средняя за 10 мин, порывы в срок и между сроками (в фигурных скобках) и направление, откуда дует ветер: С - северный, СВ - северо-восточный, В - восточный, ЮВ - юго-восточный, Ю - южный, ЮЗ - юго-западный, З - западный, СЗ - северо-западный.
Видимость - горизонтальная дальность видимости в метрах или километрах. При видимости от 1 до 10 км при отсутствии осадков обычно наблюдается дымка, при ухудшении видимости до 1 км и менее - туман. В сухую погоду видимость может ухудшаться дымом, пылью или мглою.
Явления - указаны атмосферные явления, наблюдавшиеся в срок или в последний час перед сроком; фигурными скобками обозначены явления, наблюдавшиеся между сроками (за 1-3 часа до срока); квадратными скобками обозначены град или гололедные отложения с указанием их диаметра в мм.
Облачность - указаны через наклонную черту общая и нижняя облачность в баллах и высота нижней границы облаков в метрах; квадратными скобками обозначены формы облаков: Ci - перистые, Cs - перисто-слоистые, Cc - перисто-кучевые, Ac - высококучевые, As - высокослоистые, Sc - слоисто-кучевые, Ns - слоисто-дождевые, Cu - кучевые, Cb - кучево-дождевые. Подробнее классификацию облаков см. в Атласе облаков (PDF).
T - Температура воздуха - температура, измеренная на высоте 2 м над землей.
Td - Температура точки росы - температура, при понижении до которой содержащийся в воздухе водяной пар достигнет насыщения.
f - Относительная влажность воздуха - влажноcть воздуха, измеренная на высоте 2 м над землей.
Te - Эффективная температура - температура, которую ощущает одетый по сезону человек в тени. Характеристика душности погоды. При расчете учитывается влияние влажности воздуха и скорости ветра на теплоощущения человека.
Tes - Эффективная температура на солнце - температура, которую ощущает человек, с поправкой на солнечный нагрев. Характеристика знойности погоды. Зависит от высоты солнца над горизонтом, облачности и скорости ветра. Ночью, в пасмурную погоду, а также при ветре 12 м/с и более поправка равна нулю.
P - Атмосферное давление - приведенное к уровню моря атмосферное давление.
Po - Атмосферное давление - измеренное на уровне метеостанции атмосферное давление.
Tmin - Минимальная температура - минимум температуры воздуха на высоте 2 м над землей.
Tmax - Максимальная температура - максимум температуры воздуха на высоте 2 м над землей.
R - Количество осадков - Количество выпавших осадков за период времени, мм. При наведении курсора мыши на число - период времени, за который выпало указанное количество осадков.
R24 - Количество осадков - Количество выпавших осадков за 24 часа, мм.
S - Снежный покров - Высота снежного покрова, см. При наведении курсора мыши на число - состояние снежного покрова и степень покрытия местности в баллах.